CYBQ

Tadoule Lake Airport

Tadoule Lake, Manitoba, Canada
Issued Wind Visibility Ceiling Temperature Dew Point Humidity Barometer
Sep-23
01:00 UTC
040°
7 KTS
9 miles Broken
3,100' AGL
C
36° F
C
32° F
87% 30.18" Hg
1023.9 hPa
VFR
Sep-23
00:26 UTC
030°
8 KTS
9 miles Broken
2,800' AGL
C
37° F
C
34° F
87% 30.18" Hg
1023.8 hPa
MVFR
Sep-23
00:21 UTC
030°
6 KTS
9 miles Broken
2,300' AGL
C
37° F
C
34° F
87% 30.17" Hg
1023.7 hPa
MVFR
Sep-23
00:12 UTC
040°
7 KTS
9 miles Overcast
2,500' AGL
C
37° F
C
34° F
87% 30.18" Hg
1023.9 hPa
MVFR
Sep-22
23:56 UTC
010°
9 KTS
Gust 15 KTS
7 miles Broken
1,800' AGL
C
37° F
C
36° F
93% 30.18" Hg
1023.8 hPa
MVFR
Sep-22
23:48 UTC
010°
5 KTS
9 miles Broken
1,800' AGL
C
37° F
C
36° F
93% 30.18" Hg
1023.7 hPa
MVFR
Sep-22
23:34 UTC
360°
5 KTS
9 miles Overcast
3,000' AGL
C
37° F
C
36° F
93% 30.17" Hg
1023.6 hPa
MVFR
Sep-22
23:12 UTC
010°
10 KTS
7 miles Broken
2,800' AGL
C
39° F
C
36° F
87% 30.16" Hg
1023.3 hPa
MVFR
Sep-22
23:00 UTC
360°
6 KTS
9 miles Broken
3,200' AGL
C
39° F
C
36° F
87% 30.16" Hg
1023.2 hPa
VFR
Sep-22
22:45 UTC
360°
7 KTS
9 miles Broken
2,600' AGL
C
39° F
C
36° F
87% 30.16" Hg
1023.2 hPa
MVFR
Sep-22
22:34 UTC
010°
10 KTS
Gust 15 KTS
9 miles Broken
1,700' AGL
C
39° F
C
36° F
87% 30.16" Hg
1023 hPa
MVFR
Sep-22
22:09 UTC
010°
10 KTS
9 miles Overcast
2,600' AGL
C
39° F
C
36° F
87% 30.15" Hg
1022.7 hPa
MVFR
Sep-22
21:57 UTC
020°
10 KTS
Gust 16 KTS
9 miles Overcast
2,600' AGL
C
39° F
C
36° F
87% 30.15" Hg
1022.7 hPa
MVFR
Sep-22
21:44 UTC
010°
10 KTS
9 miles Broken
1,800' AGL
C
39° F
C
36° F
87% 30.15" Hg
1022.7 hPa
MVFR
Sep-22
21:39 UTC
020°
7 KTS
9 miles Overcast
2,600' AGL
C
39° F
C
37° F
93% 30.15" Hg
1022.7 hPa
MVFR
Sep-22
21:33 UTC
020°
9 KTS
Gust 15 KTS
6 miles Overcast
2,600' AGL
C
39° F
C
36° F
87% 30.14" Hg
1022.6 hPa
MVFR
Sep-22
21:22 UTC
010°
8 KTS
9 miles Broken
2,100' AGL
C
41° F
C
37° F
87% 30.14" Hg
1022.4 hPa
MVFR
Sep-22
21:10 UTC
010°
7 KTS
9 miles Overcast
2,600' AGL
C
39° F
C
37° F
93% 30.14" Hg
1022.4 hPa
MVFR
Sep-22
20:35 UTC
030°
10 KTS
6 miles Overcast
2,200' AGL
C
39° F
C
37° F
93% 30.13" Hg
1022.2 hPa
MVFR
Sep-22
20:00 UTC
010°
7 KTS
Gust 15 KTS
9 miles Broken
1,300' AGL
C
39° F
C
37° F
93% 30.12" Hg
1021.8 hPa
MVFR
Sep-22
19:00 UTC
040°
10 KTS
Gust 16 KTS
9 miles Broken
1,800' AGL
C
41° F
C
36° F
81% 30.11" Hg
1021.4 hPa
MVFR
Sep-22
18:00 UTC
030°
10 KTS
Gust 15 KTS
6 miles Overcast
1,000' AGL
C
39° F
C
37° F
93% 30.1" Hg
1021.1 hPa
MVFR
Sep-22
17:58 UTC
020°
9 KTS
6 miles Overcast
1,000' AGL
C
39° F
C
37° F
93% 30.1" Hg
1021.1 hPa
MVFR
Sep-22
17:54 UTC
010°
8 KTS
6 miles Overcast
1,200' AGL
C
39° F
C
37° F
93% 30.1" Hg
1021.1 hPa
MVFR
Sep-22
17:37 UTC
020°
13 KTS
2 1/2 miles Overcast
1,000' AGL
C
39° F
C
37° F
93% 30.09" Hg
1020.7 hPa
IFR
Sep-22
17:31 UTC
010°
10 KTS
Gust 15 KTS
5 miles Overcast
1,200' AGL
C
39° F
C
37° F
93% 30.09" Hg
1020.6 hPa
MVFR
Sep-22
17:14 UTC
010°
11 KTS
Gust 16 KTS
3 miles Broken
1,600' AGL
C
39° F
C
37° F
93% 30.08" Hg
1020.3 hPa
MVFR
Sep-22
17:00 UTC
040°
12 KTS
9 miles Broken
1,400' AGL
C
39° F
C
36° F
87% 30.07" Hg
1020.1 hPa
MVFR
Sep-22
16:00 UTC
020°
15 KTS
Gust 22 KTS
9 miles Overcast
1,400' AGL
C
39° F
C
36° F
87% 30.04" Hg
1019 hPa
MVFR
Sep-22
15:00 UTC
030°
13 KTS
Gust 19 KTS
9 miles Overcast
1,200' AGL
C
37° F
C
36° F
93% 30.02" Hg
1018.3 hPa
MVFR
Sep-22
14:12 UTC
030°
11 KTS
Gust 21 KTS
9 miles Overcast
1,200' AGL
C
37° F
C
36° F
93% 29.99" Hg
1017.5 hPa
MVFR
Sep-22
13:57 UTC
020°
12 KTS
Gust 20 KTS
8 miles Overcast
900' AGL
C
37° F
C
37° F
100% 29.99" Hg
1017.4 hPa
IFR
Sep-22
13:52 UTC
020°
13 KTS
Gust 20 KTS
7 miles Overcast
900' AGL
C
37° F
C
37° F
100% 29.99" Hg
1017.5 hPa
IFR
Sep-22
13:38 UTC
010°
11 KTS
Gust 17 KTS
5 miles Broken
900' AGL
C
37° F
C
37° F
100% 30" Hg
1017.6 hPa
IFR
Sep-22
13:20 UTC
020°
11 KTS
Gust 18 KTS
9 miles Broken
900' AGL
C
37° F
C
36° F
93% 29.99" Hg
1017.3 hPa
IFR
Sep-22
13:00 UTC
010°
8 KTS
Gust 15 KTS
9 miles Overcast
900' AGL
C
37° F
C
37° F
100% 29.98" Hg
1017.1 hPa
IFR
Sep-22
12:27 UTC
010°
11 KTS
Gust 17 KTS
6 miles Broken
900' AGL
C
37° F
C
37° F
100% 29.97" Hg
1016.5 hPa
IFR
Sep-22
12:00 UTC
020°
10 KTS
9 miles Broken
900' AGL
C
37° F
C
37° F
100% 29.95" Hg
1016 hPa
IFR
Sep-22
11:51 UTC
010°
8 KTS
9 miles Broken
900' AGL
C
37° F
C
37° F
100% 29.95" Hg
1015.8 hPa
IFR
Sep-22
11:23 UTC
360°
12 KTS
Gust 18 KTS
5 miles Overcast
1,900' AGL
C
37° F
C
37° F
100% 29.93" Hg
1015.4 hPa
MVFR
Sep-22
11:19 UTC
010°
9 KTS
Gust 18 KTS
7 miles Overcast
1,900' AGL
C
37° F
C
36° F
93% 29.93" Hg
1015.3 hPa
MVFR
Sep-22
11:00 UTC
020°
11 KTS
Gust 21 KTS
9 miles Overcast
1,700' AGL
C
37° F
C
36° F
93% 29.92" Hg
1014.9 hPa
MVFR
Sep-22
10:46 UTC
020°
14 KTS
Gust 22 KTS
6 miles Overcast
1,100' AGL
C
37° F
C
37° F
100% 29.91" Hg
1014.5 hPa
MVFR
Sep-22
10:10 UTC
010°
12 KTS
Gust 17 KTS
5 miles Overcast
1,100' AGL
C
37° F
C
37° F
100% 29.89" Hg
1013.8 hPa
MVFR
Sep-22
10:07 UTC
010°
10 KTS
Gust 17 KTS
6 miles Overcast
1,100' AGL
C
37° F
C
37° F
100% 29.89" Hg
1013.8 hPa
MVFR
Sep-22
09:57 UTC
010°
10 KTS
Gust 20 KTS
6 miles Overcast
1,100' AGL
C
37° F
C
37° F
100% 29.88" Hg
1013.6 hPa
MVFR
Sep-22
09:21 UTC
020°
8 KTS
Gust 15 KTS
2 1/4 miles Overcast
1,300' AGL
C
37° F
C
37° F
100% 29.86" Hg
1012.8 hPa
IFR
Sep-22
09:00 UTC
010°
11 KTS
Gust 17 KTS
3 miles Overcast
1,300' AGL
C
37° F
C
37° F
100% 29.85" Hg
1012.5 hPa
MVFR
Sep-22
08:54 UTC
010°
10 KTS
Gust 17 KTS
3 miles Overcast
1,300' AGL
C
37° F
C
37° F
100% 29.85" Hg
1012.5 hPa
MVFR
Sep-22
08:41 UTC
010°
12 KTS
Gust 18 KTS
2 1/2 miles Overcast
1,500' AGL
C
37° F
C
37° F
100% 29.84" Hg
1012.3 hPa
IFR
Sep-22
08:25 UTC
030°
14 KTS
3 miles Overcast
1,300' AGL
C
37° F
C
37° F
100% 29.84" Hg
1012 hPa
MVFR
Sep-22
08:18 UTC
010°
9 KTS
Gust 18 KTS
2 1/2 miles Overcast
1,300' AGL
C
37° F
C
37° F
100% 29.84" Hg
1012 hPa
IFR
Sep-22
08:00 UTC
020°
12 KTS
Gust 20 KTS
4 miles Overcast
1,300' AGL
C
37° F
C
37° F
100% 29.83" Hg
1011.7 hPa
MVFR
Sep-22
07:42 UTC
030°
12 KTS
Gust 17 KTS
5 miles Overcast
1,300' AGL
C
37° F
C
37° F
100% 29.82" Hg
1011.5 hPa
MVFR
Sep-22
07:33 UTC
030°
11 KTS
Gust 20 KTS
9 miles Overcast
1,300' AGL
C
37° F
C
37° F
100% 29.82" Hg
1011.3 hPa
MVFR
Sep-22
07:20 UTC
030°
12 KTS
Gust 21 KTS
6 miles Overcast
1,300' AGL
C
37° F
C
37° F
100% 29.81" Hg
1011.1 hPa
MVFR
Sep-22
07:00 UTC
030°
11 KTS
Gust 20 KTS
9 miles Overcast
1,500' AGL
C
37° F
C
37° F
100% 29.81" Hg
1011.1 hPa
MVFR
Sep-22
06:29 UTC
030°
13 KTS
Gust 21 KTS
9 miles Overcast
1,500' AGL
C
37° F
C
37° F
100% 29.79" Hg
1010.6 hPa
MVFR
Sep-22
06:07 UTC
030°
14 KTS
Gust 22 KTS
6 miles Broken
1,300' AGL
C
37° F
C
37° F
100% 29.79" Hg
1010.3 hPa
MVFR
Sep-22
05:25 UTC
030°
14 KTS
Gust 22 KTS
3 miles Overcast
1,100' AGL
C
39° F
C
39° F
100% 29.78" Hg
1010 hPa
MVFR
Sep-22
05:02 UTC
030°
13 KTS
Gust 21 KTS
2 1/2 miles Overcast
900' AGL
C
39° F
C
39° F
100% 29.77" Hg
1009.8 hPa
IFR
Sep-22
04:52 UTC
040°
13 KTS
Gust 21 KTS
5 miles Overcast
1,100' AGL
C
39° F
C
39° F
100% 29.77" Hg
1009.7 hPa
MVFR
Sep-22
04:45 UTC
030°
13 KTS
Gust 23 KTS
6 miles Overcast
1,100' AGL
C
39° F
C
39° F
100% 29.76" Hg
1009.6 hPa
MVFR
Sep-22
04:38 UTC
040°
14 KTS
Gust 25 KTS
7 miles Overcast
1,100' AGL
C
39° F
C
39° F
100% 29.76" Hg
1009.5 hPa
MVFR
Sep-22
04:13 UTC
040°
16 KTS
Gust 23 KTS
3 miles Overcast
900' AGL
C
39° F
C
39° F
100% 29.75" Hg
1009.1 hPa
IFR
Sep-22
04:08 UTC
040°
13 KTS
Gust 25 KTS
2 1/2 miles Overcast
900' AGL
C
39° F
C
39° F
100% 29.75" Hg
1009.1 hPa
IFR
Sep-22
03:00 UTC
040°
13 KTS
Gust 21 KTS
3 miles Overcast
1,100' AGL
C
41° F
C
39° F
93% 29.73" Hg
1008.4 hPa
MVFR
Sep-22
02:44 UTC
040°
15 KTS
Gust 23 KTS
5 miles Overcast
1,100' AGL
C
41° F
C
41° F
100% 29.72" Hg
1008.2 hPa
MVFR